METLOCID,DATE_TIME,AVG_RH,STDDEV_RH,MIN_RH,MAX_RH,N_RH,N_COMMENTS
EXEM,11/21/97,40.35294118,3.767458185,34.3,47.9,51,0
EXEM,11/22/97,40.71739583,3.40782142,33.2,48.2,96,0
EXEM,11/23/97,47.0915625,3.669595511,38.15,56.04,96,0
EXEM,11/24/97,59.16729167,5.885423828,45.44,68.45,96,0
EXEM,11/25/97,80.505,10.20946269,57.5,93.35,96,0
EXEM,11/26/97,89.81056338,5.101668043,75.43,95.24,71,0
EXEM,11/27/97,92.5590625,2.676050538,88.39,96.76,96,0
EXEM,11/28/97,90.72125,3.027240971,81.81,95.99,96,0
EXEM,11/29/97,89.9928125,4.831234713,81.72,96.54,96,0
EXEM,11/30/97,72.73270833,14.12237825,53.32,87.61,96,0
EXEM,12/1/97,64.96770833,9.306214503,50.92,77.85,96,0
EXEM,12/2/97,65.95458333,4.076294736,55.26,73.27,96,0
EXEM,12/3/97,75.66802083,7.9615047,64.72,89.47,96,0
EXEM,12/4/97,83.79708333,7.402477241,72.29,96.84,96,0
EXEM,12/5/97,77.83,3.953544712,66.27,84.08,96,0
EXEM,12/6/97,72.90177083,9.425514644,57.76,88.73,96,0
EXEM,12/7/97,86.5896875,3.979128297,76.78,91.99,96,0
EXEM,12/8/97,92.00229167,3.115688816,84.65,96.14,96,0
EXEM,12/9/97,80.93479167,4.337775073,72.43,88.75,96,0
EXEM,12/10/97,82.32604167,3.170146096,72.98,90.89,96,0
EXEM,12/11/97,92.12395833,3.593200151,85.97,96.68,96,0
EXEM,12/12/97,70.47208333,9.93751689,57.23,89.03,96,0
EXEM,12/13/97,86.105,8.035042986,70.98,96.64,96,0
EXEM,12/14/97,94.4021875,4.898686011,77.07,99.44,96,0
EXEM,12/15/97,77.61989583,5.21725447,72.73,94.67,96,0
EXEM,12/16/97,78.74,6.694282085,70.78,98.98,96,0
EXEM,12/17/97,83.86635417,8.078400978,72.37,99.18,96,0
EXEM,12/18/97,86.629375,7.399684888,76.19,96.74,96,0
EXEM,12/19/97,76.434375,7.419952733,60.55,89.05,96,0
EXEM,12/20/97,64.96427083,2.887366582,56.85,73.09,96,0
EXEM,12/21/97,68.6271875,7.329685382,50.52,79.67,96,0
EXEM,12/22/97,47.0990625,10.96769391,30.98,66.88,96,0
EXEM,12/23/97,42.12760417,18.15515057,21.1,75.41,96,0
EXEM,12/24/97,76.68333333,7.304340983,65.9,93.87,96,0
EXEM,12/25/97,84.41604167,4.788808769,75.4,94.5,96,0
EXEM,12/26/97,71.84677083,11.60145286,57.9,91.46,96,0
EXEM,12/27/97,58.18302083,8.709731293,45.5,69.89,96,0
EXEM,12/28/97,62.79583333,9.463474678,49.8,78.28,96,0
EXEM,12/29/97,79.3296875,4.05783257,65.6,84.82,96,0
EXEM,12/30/97,80.50916667,5.737735234,71.6,88.91,96,0
EXEM,12/31/97,81.57052083,4.906649059,72.93,88.17,96,0
EXEM,1/1/98,84.84197917,10.91794241,67.06,98.26,96,0
EXEM,1/2/98,61.26291667,7.343899426,46.4,70.77,96,0
EXEM,1/3/98,80.59833333,8.11267516,64.34,93.96,96,0
EXEM,1/4/98,73.66885417,18.31415931,41.9,98.59,96,0
EXEM,1/5/98,58.12197917,5.115875111,50.66,72.12,96,0
EXEM,1/6/98,55.65739583,3.678446825,49.3,63.25,96,0
EXEM,1/7/98,62.48645833,7.910662089,48.43,74.23,96,0
EXEM,1/8/98,77.43479167,15.91953576,52.44,98.56,96,0
EXEM,1/9/98,97.06458333,1.935212169,92.53,99.68,96,0
EXEM,1/10/98,94.56375,4.383568902,87,99.84,96,0
EXEM,1/11/98,81.2790625,4.037731536,71.49,90.91,96,0
EXEM,1/12/98,76.89604167,4.80282537,67.09,86.55,96,0
EXEM,1/13/98,62.655,8.900792395,46.51,73.79,96,0
EXEM,1/14/98,76.245625,7.184853485,52.12,86.82,96,0
EXEM,1/15/98,80.07375,5.042904395,70.57,89.5,96,0
EXEM,1/16/98,61.84479167,12.73031029,47.56,80.22,96,0
EXEM,1/17/98,61.17194444,2.143109915,55.93,66.02,72,0
EXEM,1/18/98,85.57868132,13.08186354,68.16,100,91,9
EXEM,1/19/98,63.54729167,9.519535092,46.96,77.71,96,0
EXEM,1/20/98,75.43822917,15.21378523,47.76,97.55,96,0
EXEM,1/21/98,76.8790625,11.34039432,50.81,93.58,96,0
EXEM,1/22/98,77.48052083,6.983702135,68.18,93.33,96,0
EXEM,1/23/98,69.60083333,12.63146261,51.2,89,96,0
EXEM,1/24/98,61.77291667,9.723022588,49.51,82.39,96,0
EXEM,1/25/98,92.84489583,5.52140066,80.25,99.38,96,0
EXEM,1/26/98,92.343125,6.011517071,81.51,99.94,96,0
EXEM,1/27/98,84.2015625,5.083559948,77.83,95.1,96,0
EXEM,1/28/98,66.406875,16.82144967,32.33,100,96,1
EXEM,1/29/98,90.45541667,12.12052942,57.85,100,96,16
EXEM,1/30/98,88.36979167,9.274875511,74.62,100,96,11
EXEM,1/31/98,69.81697917,8.092177265,52.64,81.13,96,0
EXEM,2/1/98,64.77947917,3.478705255,54.59,68.89,96,0
EXEM,2/2/98,72.51625,3.34872238,64.32,77.65,96,0
EXEM,2/3/98,64.67260417,12.77638572,32.79,78.02,96,0
EXEM,2/4/98,65.91020833,5.060704128,59.68,76.21,96,0
EXEM,2/5/98,69.09010417,18.74152432,42.67,91.25,96,0
EXEM,2/6/98,82.12572917,9.58910223,62.2,93.7,96,0
EXEM,2/7/98,80.03364583,8.759492429,65.73,94.82,96,0
EXEM,2/8/98,67.63239583,8.97365709,48.02,78.68,96,0
EXEM,2/9/98,80.48416667,9.46373362,54.58,96.74,96,0
EXEM,2/10/98,48.72291667,21.95910313,29.2,93.96,96,0
EXEM,2/11/98,87.01229167,8.73010948,69.72,100,96,17
EXEM,2/12/98,99.0559375,1.649030068,94.24,100,96,63
EXEM,2/13/98,88.45739583,10.339812,68.44,100,96,4
EXEM,2/14/98,83.85177083,4.956912026,75.22,95.27,96,0
EXEM,2/15/98,89.8640625,7.155563397,78.28,98.84,96,0
EXEM,2/16/98,99.35125,1.043330951,95.89,100,96,50
EXEM,2/17/98,94.07333333,5.974794366,81.21,100,96,36
EXEM,2/18/98,97.915625,2.68029881,91.15,100,96,47
EXEM,2/19/98,91.46333333,8.792909544,72.34,100,96,33
EXEM,2/20/98,87.1753125,8.577041074,71.54,100,96,14
EXEM,2/21/98,64.951875,9.162130678,46.61,89.65,96,0
EXEM,2/22/98,86.18895833,11.69341888,65.89,100,96,18
EXEM,2/23/98,82.89583333,8.144928505,63.37,95.02,96,0
EXEM,2/24/98,90.5778125,4.700986504,81.72,97.51,96,0
EXEM,2/25/98,67.88302083,19.91010006,43.22,99.12,96,0
EXEM,2/26/98,55.50395833,2.405797594,49.85,60.84,96,0
EXEM,2/27/98,68.25520833,11.82287319,49.07,83.6,96,0
EXEM,2/28/98,85.3428125,8.948243427,60.61,95.28,96,0
EXEM,3/1/98,94.27541667,2.673283775,86.78,97.42,96,0
EXEM,3/2/98,88.10708333,5.272995337,78.25,98.07,96,0
EXEM,3/3/98,80.6821875,8.702317804,62.58,92.5,96,0
EXEM,3/4/98,73.28479167,11.76980034,50.39,91.22,96,0
EXEM,3/5/98,69.07746269,10.29022386,55.55,83.3,67,0
EXEM,3/6/98,78.6159375,6.147415987,67.3,89.26,96,0
EXEM,3/7/98,83.36979167,8.118829184,68.37,93.26,96,0
EXEM,3/8/98,61.11125,8.166628661,49.97,75.68,96,0
EXEM,3/9/98,72.01239583,8.858166704,52.33,93.15,96,0
EXEM,3/10/98,91.42958333,5.41007285,79.43,96.23,96,0
EXEM,3/11/98,66.31427083,12.92481072,47.13,93.89,96,0
EXEM,3/12/98,77.15666667,6.327511137,63.94,87.46,96,0
EXEM,3/13/98,64.48427083,8.936205452,49.88,79.12,96,0
EXEM,3/14/98,74.07375,3.693021085,63.02,80.91,96,0
EXEM,3/15/98,74.5125,7.751240172,57.73,86.59,96,0
EXEM,3/16/98,57.08958333,7.400240098,47.04,73.06,96,0
EXEM,3/17/98,64.86041667,5.597600974,51.3,74.16,96,0
EXEM,3/18/98,68.6115625,8.261851497,49.06,80.19,96,0
EXEM,3/19/98,58.36229167,7.404152104,47.04,74.41,96,0
EXEM,3/20/98,82.99916667,4.915547122,73.99,90.53,96,0
EXEM,3/21/98,87.8925,4.711167248,79.25,94.07,96,0
EXEM,3/22/98,76.1071875,7.020665841,61.53,85.78,96,0
EXEM,3/23/98,89.78020833,1.643519317,83.86,92.4,96,0
EXEM,3/24/98,91.6546875,1.094615485,88.68,93.3,96,0
EXEM,3/25/98,86.6565625,3.681937656,79.04,91.38,96,0
EXEM,3/26/98,59.87395833,8.798511056,45.94,80.81,96,0
EXEM,3/27/98,91.14177083,2.150611661,82.67,93.48,96,0
EXEM,3/28/98,94.53510417,0.896768461,93.16,96.58,96,0
EXEM,3/29/98,95.4271875,1.04467341,91.87,96.86,96,0
EXEM,3/30/98,94.71989583,1.705797233,90.38,96.57,96,0
EXEM,3/31/98,95.04885417,0.861502812,93.31,96.43,96,0
EXEM,4/1/98,93.83822917,2.886231196,85.11,96,96,0
EXEM,4/2/98,94.615,1.24805786,90.7,96.19,96,0
EXEM,4/3/98,92.58364583,1.15609608,89.62,94.99,96,0
EXEM,4/4/98,90.42979167,1.849867124,84.77,92.23,96,0
EXEM,4/5/98,88.891875,2.320845269,83.92,91.61,96,0
EXEM,4/6/98,86.88270833,2.073954514,84.16,92.53,96,0
EXEM,4/7/98,89.2803125,1.955250665,84.41,92.15,96,0
EXEM,4/8/98,91.09989583,1.982991623,84.54,93.44,96,0
EXEM,4/9/98,91.7178125,0.747440831,90.53,93.38,96,0
EXEM,4/10/98,86.53458333,8.885027728,60.42,92.58,96,0
EXEM,4/11/98,59.67479167,3.855154575,49.25,65.29,96,0
EXEM,4/12/98,68.82625,6.774940241,51.05,77.85,96,0
EXEM,4/13/98,77.8740625,1.500180044,73.24,80.3,96,0
EXEM,4/14/98,82.32708333,3.622800288,76.47,87.26,96,0
EXEM,4/15/98,85.7465625,1.009400894,83.05,87.06,96,0
EXEM,4/16/98,83.45854167,1.146667464,79.54,85.08,96,0
EXEM,4/17/98,83.60229167,0.733330512,81.62,84.92,96,0
EXEM,4/18/98,85.075625,0.800650804,83.4,86.46,96,0
EXEM,4/19/98,85.05239583,0.991340129,81.88,86.33,96,0
EXEM,4/20/98,84.03604167,1.471853453,80.51,86.43,96,0
EXEM,4/21/98,86.73626866,0.555151729,85.59,87.98,67,0
EXEM,4/22/98,85.82447917,2.604814114,78.3,88.02,96,0
EXEM,4/23/98,88.70479167,0.609066549,87.52,89.68,96,0
EXEM,4/24/98,89.935625,0.657554981,88.82,91.29,96,0
EXEM,4/25/98,73.65020833,13.04081383,54.59,90.45,96,0
EXEM,4/26/98,67.85666667,13.80635541,54.91,96.3,96,0
EXEM,4/27/98,70.55479167,17.87625199,44,93.44,96,0
EXEM,4/28/98,56.10958333,6.995594842,45.52,68.17,96,0
EXEM,4/29/98,61.7528125,10.01815423,50.42,80.85,96,0
EXEM,4/30/98,81.95041667,3.649388101,77.26,89.93,96,0
EXEM,5/1/98,90.4859375,0.743409752,88.23,91.84,96,0
EXEM,5/2/98,90.32,0.41544396,89.46,91.11,96,0
EXEM,5/3/98,88.97916667,0.618729882,87.55,90.44,96,0
EXEM,5/4/98,89.26614583,1.246425939,82.14,91.73,96,0
EXEM,5/5/98,82.85,5.787852433,66.36,90.11,96,0
EXEM,5/6/98,82.37802083,1.118433698,78.59,84.41,96,0
EXEM,5/7/98,65.23760417,7.762770225,34.94,76.62,96,0
EXEM,5/8/98,79.94739583,6.437973078,68.42,93.58,96,0
EXEM,5/9/98,78.54072917,13.35944753,53.14,93.76,96,0
EXEM,5/10/98,75.75395833,7.183429393,57.03,87.2,96,0
EXEM,5/11/98,90.176875,7.182113354,75.21,95.53,96,0
EXEM,5/12/98,89.65479167,5.447834911,75.71,95.85,96,0
EXEM,5/13/98,90.405,3.323614076,74,92.84,96,0
EXEM,5/14/98,90.24895833,0.204900382,89.83,90.81,96,0
EXEM,5/15/98,90.09802083,0.273428985,89.43,90.54,96,0
EXEM,5/16/98,74.75875,12.46367001,59.37,91.24,96,0
EXEM,5/17/98,70.74604167,13.41847489,48.96,95.11,96,0
EXEM,5/18/98,88.6859375,13.84016798,44.7,96.13,96,0
EXEM,5/19/98,96.27020833,0.674750604,94.19,97.45,96,0
EXEM,5/20/98,95.11583333,1.222534612,92.52,96.98,96,0
EXEM,5/21/98,75.14104167,19.81981202,42.53,96.46,96,0
EXEM,5/22/98,74.5871875,19.29405328,42.64,95.1,96,0
EXEM,5/23/98,91.64270833,2.847091398,80.36,94.79,96,0
EXEM,5/24/98,73.268125,6.873827144,57.9,83.53,96,0
EXEM,5/25/98,83.69125,1.334197374,80.83,86.03,96,0
EXEM,5/26/98,77.57041667,3.740697913,71.21,85.58,96,0
EXEM,5/27/98,76.6728125,2.126912615,69.88,80.4,96,0
EXEM,5/28/98,81.5409375,5.188595607,75.65,91.88,96,0
EXEM,5/29/98,59.49666667,17.70740087,40.85,90.47,96,0
EXEM,5/30/98,82.26583333,12.89909851,56.28,93.96,96,0
EXEM,5/31/98,84.1425,4.098679633,70.85,91.86,96,0
EXEM,6/1/98,87.21583333,2.791941285,80.38,93.32,96,0
EXEM,6/2/98,92.36052083,0.760109923,89.53,93.24,96,0
EXEM,6/3/98,82.79708333,3.814909785,75.64,90.8,96,0
EXEM,6/4/98,73.74708333,3.474792206,63.6,81.16,96,0
EXEM,6/5/98,62.8471875,16.00668214,43.69,90.76,96,0
EXEM,6/6/98,46.8225,5.216748937,37.07,61.82,96,0
EXEM,6/7/98,85.49989583,16.51579158,45.79,98.52,96,0
EXEM,6/8/98,99.16322917,0.314245947,98.37,99.92,96,0
EXEM,6/9/98,92.518125,11.644544,45.62,99.62,96,0
EXEM,6/10/98,75.93385417,20.83213143,40.87,96.57,96,0
EXEM,6/11/98,90.14729167,5.714731928,71.68,95.32,96,0
EXEM,6/12/98,97.30208333,1.505674122,88.85,98.67,96,0
EXEM,6/13/98,56.396875,22.04356129,33.36,98.05,96,0
EXEM,6/14/98,63.67104167,11.27539421,43.26,83.56,96,0
EXEM,6/15/98,67.67572917,12.60131236,51.31,83.57,96,0
EXEM,6/16/98,75.67739583,14.42235949,52.07,92.71,96,0
EXEM,6/17/98,69.39427083,6.160257641,56.79,88.39,96,0
EXEM,6/18/98,86.26041667,7.094344659,75.43,94.63,96,0
EXEM,6/19/98,93.463125,0.259887881,92.78,94.14,96,0
EXEM,6/20/98,93.29166667,1.752961804,80.51,94.23,96,0
EXEM,6/21/98,72.23552083,12.90605699,55.16,93.05,96,0
EXEM,6/22/98,89.11447917,6.587596458,76.53,94.4,96,0
EXEM,6/23/98,83.05114583,12.80379079,48.16,95.65,96,0
EXEM,6/24/98,95.54010417,2.040083845,90.36,97.27,96,0
EXEM,6/25/98,91.67072917,10.83906524,58.26,97.16,96,0
EXEM,6/26/98,59.1171875,3.40677551,54.02,68.82,96,0
EXEM,6/27/98,82.43979167,16.24230299,55.47,96.24,96,0
EXEM,6/28/98,92.40520833,4.333759758,80.94,95.71,96,0
EXEM,6/29/98,77.55989583,2.441242348,72.04,82.47,96,0
EXEM,6/30/98,76.9640625,7.383315412,66.07,87.43,96,0
EXEM,7/1/98,64.88677083,16.17300067,46.7,94.34,96,0
EXEM,7/2/98,66.92416667,16.94589791,46.81,94.91,96,0
EXEM,7/3/98,71.9265625,7.546724605,51.67,84.08,96,0
EXEM,7/4/98,70.941875,19.7631551,35.81,93.35,96,0
EXEM,7/5/98,86.1371875,3.740936191,66.48,92.84,96,0
EXEM,7/6/98,85.27916667,8.327228093,64.43,93.7,96,0
EXEM,7/7/98,91.90770833,0.255727977,91.26,92.43,96,0
EXEM,7/8/98,92.883125,0.311026526,92.18,93.33,96,0
EXEM,7/9/98,92.94927083,0.596122991,91.3,93.73,96,0
EXEM,7/10/98,90.65177083,0.480738456,90.03,92.06,96,0
EXEM,7/11/98,90.4496875,0.199623082,89.99,90.84,96,0
EXEM,7/12/98,90.02458333,0.276130849,89.49,90.54,96,0
EXEM,7/13/98,90.01208333,0.418774947,88.66,90.62,96,0
EXEM,7/14/98,89.7040625,0.210770906,89.17,90.22,96,0
EXEM,7/15/98,91.13729167,0.971878787,89.19,92.8,96,0
EXEM,7/16/98,65.21614583,8.776361477,47.43,85.7,96,0
EXEM,7/17/98,86.7071875,10.84362366,47.07,93.08,96,0
EXEM,7/18/98,65.44364583,10.29967236,54.47,88.18,96,0
EXEM,7/19/98,75.524375,6.027573102,60.64,83.13,96,0
EXEM,7/20/98,61.88572917,22.05039213,30.82,83.71,96,0
EXEM,7/21/98,85.92697917,1.469857222,80.88,87.23,96,0
EXEM,7/22/98,72.04791667,16.06908211,43.81,87.24,96,0
EXEM,7/23/98,85.63541667,2.936491611,68.88,87.22,96,0
EXEM,7/24/98,62.59739583,7.001489653,45.66,71.45,96,0
EXEM,7/25/98,73.328125,8.448180161,48.03,82.23,96,0
EXEM,7/26/98,67.9828125,7.712278891,45.01,78.34,96,0
EXEM,7/27/98,79.94020833,2.034153117,74.9,82.4,96,0
EXEM,7/28/98,66.14875,8.079154496,53,82.29,96,0
EXEM,7/29/98,82.91041667,3.639778165,71.16,85.57,96,0
EXEM,7/30/98,82.65291667,3.159844405,75.67,85.62,96,0
EXEM,7/31/98,84.13854167,0.746833285,81.79,85.39,96,0
EXEM,8/1/98,83.790625,0.869079141,81.73,85.39,96,0
EXEM,8/2/98,81.85125,1.681715446,77.83,84.89,96,0
EXEM,8/3/98,82.54864583,2.244522981,77.57,84.9,96,0
EXEM,8/4/98,53.095,7.189378716,43.2,83.2,96,0
EXEM,8/5/98,56.63364583,19.82897976,34.34,90.04,96,0
EXEM,8/6/98,33.28739583,1.862567693,31.19,41.72,96,0
EXEM,8/7/98,64.0340625,10.08039991,42.8,78.04,96,0
EXEM,8/8/98,73.2409375,6.118417077,49.5,80.42,96,0
EXEM,8/9/98,84.35270833,6.643708615,67.39,92.93,96,0
EXEM,8/10/98,76.17979167,11.60333101,54.53,92.07,96,0
EXEM,8/11/98,74.23354167,10.73487283,44.25,84.96,96,0
EXEM,8/12/98,87.07333333,1.722290804,81.18,89.07,96,0
EXEM,8/13/98,80.89895833,4.091419128,75.97,87.89,96,0
EXEM,8/14/98,87.2121875,2.569141656,79.63,89.62,96,0
EXEM,8/15/98,87.2384375,1.105151886,83.9,88.54,96,0
EXEM,8/16/98,87.31270833,0.426280064,86.28,88.15,96,0
EXEM,8/17/98,86.85635417,0.286371565,86.16,87.48,96,0
EXEM,8/18/98,86.64208333,1.421726835,82.8,88.23,96,0
EXEM,8/19/98,86.9253125,1.4844194,82.56,88.41,96,0
EXEM,8/20/98,87.72270833,0.429561537,86.38,88.43,96,0
EXEM,8/21/98,84.78541667,3.060567514,77.73,87.87,96,0
EXEM,8/22/98,81.03947917,1.212568713,77.75,83.76,96,0
EXEM,8/23/98,83.35229167,0.755272665,81.45,84.72,96,0
EXEM,8/24/98,86.35385417,0.823047444,83.59,87.53,96,0
EXEM,8/25/98,87.20260417,0.474093583,86.03,88.09,96,0
EXEM,8/26/98,87.62104167,0.213089945,87.06,87.97,96,0
EXEM,8/27/98,87.475,0.19830333,87.06,87.89,96,0
EXEM,8/28/98,87.285625,0.352637618,86.55,88.01,96,0
EXEM,8/29/98,71.07,16.73774159,40.04,87.95,96,0
EXEM,8/30/98,75.34479167,15.79208976,39.54,88.61,96,0
EXEM,8/31/98,85.73239583,1.355307497,82.16,88.38,96,0
EXEM,9/1/98,83.010625,2.207026012,78.03,86.27,96,0
EXEM,9/2/98,86.3090625,1.94146395,81.18,87.99,96,0
EXEM,9/3/98,77.53416667,10.98919332,56.99,87.79,96,0
EXEM,9/4/98,82.57947917,2.349903635,75.11,85.87,96,0
EXEM,9/5/98,79.140625,2.111543617,75.65,83.39,96,0
EXEM,9/6/98,82.55375,2.168297052,74.78,84.93,96,0
EXEM,9/7/98,83.83052083,0.969475572,80.49,85.33,96,0
EXEM,9/8/98,80.48427083,2.42305277,75.91,85.02,96,0
EXEM,9/9/98,82.53385417,0.893384304,79.63,84.71,96,0
EXEM,9/10/98,83.1121875,1.16736158,80.61,85.22,96,0
EXEM,9/11/98,84.27416667,0.443081712,83.36,85.01,96,0
EXEM,9/12/98,84.75729167,1.776857355,82.65,89.46,96,0
EXEM,9/13/98,67.57791667,9.804244077,56.01,89.01,96,0
EXEM,9/14/98,72.9875,4.511752839,66.24,82.2,96,0
EXEM,9/15/98,80.90875,2.480979115,74.13,84.66,96,0
EXEM,9/16/98,79.87583333,2.329837431,74.93,83.38,96,0
EXEM,9/17/98,82.2715625,1.58109178,79.71,86.48,96,0
EXEM,9/18/98,86.34354167,2.195354895,81.36,88.85,96,0
EXEM,9/19/98,85.23989583,2.473775506,79.57,88.23,96,0
EXEM,9/20/98,83.61395833,2.797157007,78.16,86.42,96,0
EXEM,9/21/98,85.1978125,2.001974396,80.21,87.76,96,0
EXEM,9/22/98,86.68354167,0.610561397,85.03,87.55,96,0
EXEM,9/23/98,85.57708333,1.697300592,82.2,87.43,96,0
EXEM,9/24/98,85.68802083,1.283922952,83.12,87.28,96,0
EXEM,9/25/98,80.33822917,5.158314697,67.66,87.33,96,0
EXEM,9/26/98,83.58364583,3.64919663,76.66,87.82,96,0
EXEM,9/27/98,84.6921875,1.693963402,80.88,88.51,96,0
EXEM,9/28/98,87.098125,0.939368559,84.9,88.46,96,0
EXEM,9/29/98,88.32760417,1.603964001,80.98,90.69,96,0
EXEM,9/30/98,71.63822917,12.02389568,53.07,92.68,96,0
EXEM,10/1/98,77.44020833,13.87810999,49.71,99.52,96,0
EXEM,10/2/98,57.13947917,10.23244143,36.99,70.66,96,0
EXEM,10/3/98,64.22052083,4.78438983,55.79,74.13,96,0
EXEM,10/4/98,68.53489583,5.651138496,60.48,81.75,96,0
EXEM,10/5/98,88.6446875,6.498866128,77.74,97.69,96,0
EXEM,10/6/98,94.81010417,2.816402145,87.68,97.63,96,0
EXEM,10/7/98,91.30677083,6.296752462,76.71,97.26,96,0
EXEM,10/8/98,92.19083333,4.723919574,66.91,95.76,96,0
EXEM,10/9/98,83.4865625,10.5698153,63.59,94.82,96,0
EXEM,10/10/98,81.52458333,14.34570472,44.81,95.49,96,0
EXEM,10/11/98,77.3740625,5.708990616,53.46,88.1,96,0
EXEM,10/12/98,69.78739583,15.28765331,45.11,91.56,96,0
EXEM,10/13/98,56.58770833,8.106414287,42.75,70.68,96,0
EXEM,10/14/98,68.41989583,12.00535174,51.84,94.3,96,0
EXEM,10/15/98,54.06395833,22.63613513,34.74,97.48,96,0
EXEM,10/16/98,39.54020833,7.150590698,30.58,57.96,96,0
EXEM,10/17/98,58.19135417,6.174366811,47.47,70.31,96,0
EXEM,10/18/98,42.913125,16.89924049,25.12,87.84,96,0
EXEM,10/19/98,88.6103125,2.471204459,82.12,92.87,96,0
EXEM,10/20/98,85.6453125,3.998404143,77.61,90.81,96,0
EXEM,10/21/98,79.96125,10.97741281,57.01,92.57,96,0
EXEM,10/22/98,69.10552083,10.65945213,52.46,86.06,96,0
EXEM,10/23/98,62.0965625,7.213574605,46.41,70,96,0
EXEM,10/24/98,65.1709375,2.601078351,58.41,72.26,96,0
EXEM,10/25/98,69.245,15.88008398,50.27,91.14,96,0
EXEM,10/26/98,64.23,2.449053953,57.51,67.61,96,0
EXEM,10/27/98,56.93114583,9.509618607,37.96,70.96,96,0
EXEM,10/28/98,64.275,9.02109411,44.7,78.68,96,0
EXEM,10/29/98,62.45895833,5.562235348,48.54,71.23,96,0
EXEM,10/30/98,64.39875,6.708392426,51.39,77.5,96,0
EXEM,10/31/98,85.4196875,5.805280437,67.33,91.5,96,0
EXEM,11/1/98,81.06114583,8.918868806,61.19,94.76,96,0
EXEM,11/2/98,71.263125,4.627561666,62.12,79.16,96,0
EXEM,11/3/98,65.35885417,4.954870835,50.98,70.87,96,0
EXEM,11/4/98,56.5453125,6.309498262,39.67,65.46,96,0
EXEM,11/5/98,44.53333333,12.2910484,26.17,62.04,96,0
EXEM,11/6/98,35.75447917,10.46837421,26.43,54.8,96,0
EXEM,11/7/98,47.0521875,8.969076019,29.12,58.52,96,0
EXEM,11/8/98,48.98864583,20.50179574,30.08,92.55,96,0
EXEM,11/9/98,60.05875,12.453171,35.81,81.58,96,0
EXEM,11/10/98,61.55885417,11.12702342,35.92,80.18,96,0
EXEM,11/11/98,70.70375,3.774932345,63.27,79.73,96,0
EXEM,11/12/98,82.97708333,10.76489107,63.52,93.35,96,0
EXEM,11/13/98,69.97885417,11.53484623,50.35,90.77,96,0
EXEM,11/14/98,68.770625,6.675311436,57.18,85.07,96,0
EXEM,11/15/98,58.28375,11.35646778,33.08,80.47,96,0
EXEM,11/16/98,62.16947917,8.575170321,41.21,92.57,96,0
EXEM,11/17/98,67.46604167,18.8729135,38.1,94.6,96,0
EXEM,11/18/98,73.5521875,11.32020004,56.9,95.09,96,0
EXEM,11/19/98,61.5534375,11.09674631,41.45,82.77,96,0
EXEM,11/20/98,52.10958333,4.784183133,40.11,59.71,96,0
EXEM,11/21/98,50.61916667,3.299882826,42.3,55.43,96,0
EXEM,11/22/98,76.3665625,14.28615818,50.94,92.8,96,0
EXEM,11/23/98,54.28854167,6.816943285,40.24,65.79,96,0
EXEM,11/24/98,54.0321875,6.154707091,45.53,62.8,96,0
EXEM,11/25/98,58.16677083,5.397854836,51.94,71.03,96,0
EXEM,11/26/98,79.37333333,9.561680723,65.52,98.25,96,0
EXEM,11/27/98,73.65333333,3.804692855,66.57,80.02,96,0
EXEM,11/28/98,65.92052083,4.513713693,60.34,77.39,96,0
EXEM,11/29/98,73.29458333,9.698198304,55.94,89.64,96,0
EXEM,11/30/98,58.865,5.014336289,49.71,75.32,96,0
EXEM,12/1/98,52.04958333,11.48272432,38.76,79.04,96,0
EXEM,12/2/98,75.20052083,7.00021118,48.3,83.61,96,0
EXEM,12/3/98,60.19052083,7.288279614,40.3,72.56,96,0
EXEM,12/4/98,82.49885417,8.444945778,67.59,99.69,96,0
EXEM,12/5/98,64.46697917,13.83923767,45.26,85.99,96,0
EXEM,12/6/98,73.5009375,6.150180327,56.08,83.47,96,0
EXEM,12/7/98,73.200625,4.65838843,63.29,80.85,96,0
EXEM,12/8/98,85.12291667,4.124800963,78.98,91.7,96,0
EXEM,12/9/98,77.94760417,7.245102265,65.01,90.85,96,0
EXEM,12/10/98,72.79010417,2.199504966,68.74,76.87,96,0
EXEM,12/11/98,80.34625,6.94173181,68.34,91.4,96,0
EXEM,12/12/98,81.62791667,10.15793524,67.6,94.84,96,0
EXEM,12/13/98,67.72177083,6.971579145,53.98,80.02,96,0
EXEM,12/14/98,74.73635417,5.323380232,66.56,87.26,96,0
EXEM,12/15/98,78.9290625,4.019170136,69.14,86.99,96,0
EXEM,12/16/98,70.33958333,11.5256902,50.45,88.01,96,0
EXEM,12/17/98,72.10677083,5.355888347,63.47,87.04,96,0
EXEM,12/18/98,59.15989583,3.86552958,54.77,71.84,96,0
EXEM,12/19/98,37.0403125,14.5096068,21,75.58,96,0
EXEM,12/20/98,59.22916667,20.89280912,20.6,85.35,96,0
EXEM,12/21/98,57.6765625,9.902208135,44.39,78.2,96,0
EXEM,12/22/98,50.213125,11.24859517,22.8,74.4,96,0
EXEM,12/23/98,31.24416667,13.7439709,20.2,68.74,96,0
EXEM,12/24/98,27.08822917,8.841403555,19.8,72.3,96,0
EXEM,12/25/98,62.01989583,22.07655343,24,85.27,96,0
EXEM,12/26/98,47.34333333,7.633010259,24.9,58.19,96,0
EXEM,12/27/98,58.9421875,8.315635647,42.91,74.77,96,0
EXEM,12/28/98,60.21260417,7.313176032,51,76.06,96,0
EXEM,12/29/98,71.94895833,3.036110212,62.71,75.89,96,0
EXEM,12/30/98,67.34197917,8.170363726,53.88,85.87,96,0
EXEM,12/31/98,66.88177083,7.538929701,55.9,87.77,96,0
EXEM,1/1/99,68.0121875,10.4981736,52.38,86.97,96,0
EXEM,1/2/99,56.65333333,14.52706952,24.6,88.11,96,0
EXEM,1/3/99,29.04,6.765782174,22.4,44,96,0
EXEM,1/4/99,65.42916667,12.04273187,41.5,89.18,96,0
EXEM,1/5/99,66.22791667,14.65573291,30.2,87.83,96,0
EXEM,1/6/99,74.8309375,10.99287062,50.1,89.08,96,0
EXEM,1/7/99,72.61677083,10.4443476,50.4,91.18,96,0
EXEM,1/8/99,76.26072917,7.334202535,60.38,84.91,96,0
EXEM,1/9/99,55.000625,8.198196183,46.4,69.83,96,0
EXEM,1/10/99,69.0959375,9.378892267,51.24,92.49,96,0
EXEM,1/11/99,73.14520833,18.6770839,45.85,93.92,96,0
EXEM,1/12/99,64.49385417,11.87178862,47.4,88.46,96,0
EXEM,1/13/99,72.11223881,9.491844158,47.23,88.8,67,0
EXEM,1/14/99,41.14197917,13.09365122,25.4,70.27,96,0
EXEM,1/15/99,42.9725,19.05642342,22.1,77.29,96,0
EXEM,1/16/99,73.57739583,9.960579062,52.2,87.39,96,0
EXEM,1/17/99,82.864375,2.407711651,76.7,88.76,96,0
EXEM,1/18/99,58.33895833,7.456845033,51.09,79.55,96,0
EXEM,1/19/99,53.59666667,7.115463023,46,74.08,96,0
EXEM,1/20/99,67.96677083,13.34314762,43.3,86.45,96,0
EXEM,1/21/99,64.38916667,11.57828573,33.8,85.47,96,0
EXEM,1/22/99,53.39375,9.825032717,26.5,79.74,96,0
EXEM,1/23/99,65.4578125,10.87246413,45.4,87.34,96,0
EXEM,1/24/99,63.82697917,5.740266108,50.8,78.72,96,0
EXEM,1/25/99,74.44041667,10.89439672,58.83,90.37,96,0
EXEM,1/26/99,58.73260417,8.140523615,48.6,83.06,96,0
EXEM,1/27/99,53.89895833,3.995363228,45.5,62.08,96,0
EXEM,1/28/99,62.61697917,11.54074969,47.7,87.06,96,0
EXEM,1/29/99,84.37020833,6.28129336,70.16,94.94,96,0
EXEM,1/30/99,85.35291667,2.081707759,80.88,89.61,96,0
EXEM,1/31/99,82.84520833,6.257118553,72.28,96.04,96,0
EXEM,2/1/99,86.74083333,5.636608287,71.84,97.51,96,0
EXEM,2/2/99,75.1134375,5.287621857,68.87,90.76,96,0
EXEM,2/3/99,60.40802083,4.763432999,54.49,71.39,96,0
EXEM,2/4/99,63.395625,5.199988828,53.41,74.48,96,0
EXEM,2/5/99,70.37197917,10.91643451,55.69,89.76,96,0
EXEM,2/6/99,61.89333333,7.573280825,51.79,76.76,96,0
EXEM,2/7/99,66.73020833,10.91905924,32.49,81.3,96,0